Total_Precipitation_Accumulation
0.08 0.17 0.25 0.26 0.23 0.20 0.17 0.16 0.29 0.34 0.48 0.56 0.72 0.72 0.75 0.74 0.67 0.64 0.73 0.70 0.64 0.64 0.73 0.74 0.80 0.81 0.81 0.83 0.85 1.06 1.61 1.94 1.93 1.80 1.79 1.76 1.75 1.88 1.95 2.01 2.04 2.28 2.44 2.51
0.11 0.15 0.17 0.18 0.21 0.20 0.15 0.13 0.13 0.20 0.39 0.44 0.71 0.85 0.83 0.84 0.80 0.74 0.72 0.68 0.66 0.58 0.68 0.80 0.88 0.91 0.91 0.97 1.02 1.16 1.54 1.86 1.86 1.75 1.68 1.62 1.69 1.83 1.95 2.04 2.22 2.41 2.40 2.40
0.17 0.20 0.19 0.26 0.22 0.19 0.18 0.17 0.17 0.28 0.42 0.45 0.55 0.70 0.81 0.83 0.80 0.73 0.74 0.67 0.67 0.71 0.79 0.99 0.93 0.96 1.04 0.98 1.04 1.23 1.60 1.87 1.93 1.84 1.77 1.74 1.67 1.84 2.03 2.25 2.45 2.54 2.48 2.43
0.22 0.27 0.39 0.31 0.23 0.23 0.27 0.31 0.32 0.35 0.39 0.44 0.57 0.65 0.79 0.96 0.83 0.69 0.72 0.74 0.83 0.82 0.88 0.97 0.95 1.01 1.07 1.10 1.14 1.32 1.62 1.87 2.00 1.95 1.93 2.00 2.01 2.07 2.27 2.52 2.70 2.71 2.67 2.56
0.32 0.37 0.44 0.40 0.32 0.36 0.40 0.47 0.49 0.51 0.46 0.52 0.60 0.72 0.88 0.83 0.81 0.86 0.88 0.88 0.94 1.03 1.07 1.16 1.16 1.11 1.18 1.34 1.40 1.46 1.55 1.82 2.03 2.10 2.15 2.13 2.17 2.44 2.65 2.82 2.85 2.81 2.88 2.79
0.46 0.55 0.62 0.61 0.45 0.39 0.47 0.82 0.64 0.66 0.65 0.59 0.63 0.93 1.07 0.89 0.80 0.81 0.93 1.04 1.04 1.11 1.18 1.22 1.25 1.32 1.39 1.52 1.69 1.81 1.90 2.05 2.34 2.54 2.68 2.71 2.78 2.85 2.92 3.02 2.97 2.99 2.90 2.84
0.67 0.80 0.75 0.59 0.51 0.46 0.89 1.23 0.90 0.87 0.85 0.75 0.88 1.01 1.01 0.88 0.83 0.80 0.84 0.98 1.07 1.12 1.22 1.29 1.32 1.47 1.75 1.89 1.99 2.17 2.33 2.41 2.67 3.02 3.21 3.16 3.19 3.08 3.00 2.99 3.01 3.01 2.89 2.78
0.91 1.16 1.24 0.69 0.62 0.98 1.24 1.04 1.06 1.08 1.06 0.99 0.97 1.03 1.04 1.01 0.88 0.84 0.86 0.93 1.05 1.13 1.21 1.40 1.66 1.86 2.15 2.33 2.39 2.47 2.64 2.94 3.18 3.36 3.18 3.08 3.27 3.15 3.16 3.21 3.19 3.08 2.98 2.87
1.18 1.41 1.21 0.84 0.96 1.14 1.13 1.11 1.14 1.13 1.08 0.97 0.94 1.10 1.05 1.00 1.00 0.91 0.90 0.93 1.02 1.11 1.30 1.51 1.82 2.21 2.46 2.55 2.75 2.76 2.82 3.04 3.12 3.18 3.29 3.42 3.50 3.37 3.31 3.29 3.22 3.03 2.92 2.74
1.48 1.55 1.31 1.15 1.14 1.10 1.12 1.14 1.10 1.04 1.00 1.00 0.98 1.00 1.02 0.99 1.00 0.97 0.95 1.02 1.06 1.18 1.39 1.69 2.00 2.35 2.51 2.57 2.62 2.65 2.68 2.72 2.84 3.02 3.16 3.28 3.51 3.52 3.38 3.19 3.09 3.00 2.95 2.82
1.99 2.07 1.91 1.75 1.50 1.32 1.27 1.20 1.24 1.20 1.12 1.09 1.05 1.01 0.99 1.01 1.01 1.00 0.99 1.10 1.21 1.32 1.43 1.59 1.87 2.16 2.29 2.45 2.56 2.73 2.77 2.69 2.61 2.65 2.78 2.93 3.06 3.15 3.08 3.05 2.93 2.80 2.62 2.56
2.30 2.04 2.02 2.16 1.87 1.63 1.56 1.55 1.54 1.50 1.45 1.33 1.25 1.19 1.12 1.09 1.02 0.99 0.99 1.08 1.20 1.34 1.51 1.69 1.88 2.09 2.21 2.39 2.53 2.69 2.72 2.61 2.55 2.50 2.57 2.63 2.64 2.62 2.49 2.39 2.27 2.10 2.02 1.96
1.94 1.84 1.82 1.99 1.91 1.82 1.89 2.02 2.03 1.89 1.66 1.39 1.26 1.24 1.18 1.05 0.99 1.00 1.06 1.18 1.35 1.43 1.57 1.76 1.86 1.99 2.16 2.38 2.52 2.63 2.60 2.47 2.33 2.23 2.24 2.24 2.29 2.45 2.52 2.30 2.10 1.88 1.77 1.65
1.84 2.05 2.26 2.27 2.23 2.06 2.05 2.16 2.15 1.92 1.77 1.60 1.41 1.33 1.25 1.14 1.05 1.03 1.07 1.20 1.32 1.41 1.44 1.55 1.71 1.82 1.99 2.21 2.35 2.45 2.45 2.46 2.35 2.22 2.20 2.19 2.27 2.37 2.50 2.49 2.22 1.85 1.76 1.68
2.06 2.02 2.22 2.33 2.21 2.19 2.15 2.15 2.20 2.06 1.83 1.81 1.71 1.53 1.43 1.41 1.39 1.34 1.29 1.30 1.43 1.51 1.54 1.57 1.69 1.79 1.97 2.26 2.33 2.31 2.27 2.23 2.20 2.25 2.22 2.20 2.33 2.38 2.37 2.41 2.28 2.07 1.82 1.62
2.42 2.19 2.27 2.35 2.21 2.10 2.04 1.99 1.99 1.94 1.80 1.73 1.72 1.68 1.52 1.47 1.50 1.50 1.53 1.59 1.78 1.81 1.80 1.81 1.83 1.89 2.14 2.43 2.44 2.33 2.21 2.13 2.02 2.00 1.99 1.96 2.02 2.12 2.16 2.28 2.26 2.17 2.00 1.72
2.48 2.51 2.52 2.28 2.10 2.01 1.89 1.77 1.72 1.69 1.76 1.77 1.63 1.59 1.50 1.38 1.39 1.49 1.61 1.69 1.80 1.78 1.73 1.79 1.83 1.90 2.15 2.38 2.43 2.35 2.15 1.98 1.74 1.58 1.63 1.74 1.89 2.01 2.04 2.10 2.20 2.15 1.93 1.69
2.16 2.21 2.22 2.07 1.94 1.86 1.78 1.65 1.52 1.47 1.55 1.59 1.46 1.42 1.41 1.46 1.54 1.63 1.78 1.82 1.82 1.76 1.66 1.60 1.61 1.75 1.98 2.06 2.07 2.09 2.01 1.87 1.65 1.50 1.54 1.64 1.76 1.95 2.02 1.98 1.96 1.95 1.83 1.63
1.99 1.95 1.94 1.81 1.71 1.65 1.58 1.49 1.48 1.44 1.42 1.51 1.49 1.42 1.46 1.55 1.70 1.80 1.85 2.02 2.08 1.91 1.69 1.54 1.56 1.58 1.74 1.79 1.83 1.92 1.90 1.84 1.71 1.62 1.68 1.74 1.77 1.83 1.84 1.82 1.77 1.71 1.65 1.55
2.07 1.94 1.95 1.83 1.67 1.61 1.54 1.46 1.40 1.39 1.45 1.51 1.55 1.58 1.68 1.74 1.89 2.05 2.13 2.19 2.21 2.04 1.72 1.55 1.46 1.48 1.53 1.59 1.66 1.63 1.68 1.72 1.67 1.61 1.64 1.70 1.68 1.71 1.66 1.64 1.61 1.56 1.50 1.48
2.07 2.05 2.01 1.94 1.81 1.65 1.57 1.53 1.49 1.45 1.44 1.51 1.63 1.71 1.84 1.94 2.05 2.23 2.45 2.40 2.17 1.99 1.74 1.56 1.40 1.36 1.36 1.45 1.54 1.51 1.56 1.64 1.66 1.66 1.66 1.67 1.70 1.73 1.65 1.58 1.56 1.54 1.53 1.51
1.85 1.91 1.90 1.80 1.71 1.65 1.57 1.57 1.55 1.51 1.51 1.59 1.67 1.76 1.89 1.96 2.06 2.19 2.25 2.40 2.24 2.10 1.72 1.45 1.32 1.27 1.27 1.34 1.31 1.42 1.46 1.50 1.54 1.56 1.57 1.58 1.59 1.64 1.64 1.56 1.50 1.41 1.40 1.40
1.69 1.71 1.77 1.76 1.70 1.68 1.60 1.58 1.61 1.61 1.68 1.78 1.82 1.90 1.99 1.98 2.06 2.43 2.51 2.24 2.08 1.95 1.56 1.39 1.38 1.32 1.29 1.22 1.23 1.33 1.37 1.42 1.44 1.36 1.31 1.34 1.39 1.48 1.54 1.50 1.49 1.41 1.37 1.39
1.70 1.62 1.66 1.64 1.59 1.63 1.64 1.59 1.66 1.80 1.84 1.86 1.83 1.86 1.99 2.01 1.96 2.03 2.26 2.29 2.10 1.86 1.54 1.49 1.41 1.30 1.25 1.19 1.32 1.39 1.38 1.39 1.38 1.26 1.16 1.18 1.26 1.38 1.46 1.52 1.53 1.47 1.40 1.38
1.70 1.56 1.46 1.50 1.61 1.72 1.75 1.75 1.85 1.91 1.86 1.83 1.71 1.71 1.89 2.06 2.13 2.03 1.96 1.97 2.03 1.83 1.62 1.56 1.45 1.37 1.18 1.13 1.29 1.43 1.46 1.48 1.40 1.29 1.22 1.28 1.32 1.36 1.39 1.42 1.44 1.40 1.37 1.35
1.74 1.61 1.55 1.47 1.55 1.67 1.76 1.89 2.02 2.02 1.99 2.02 1.84 1.69 1.80 1.88 1.82 1.81 1.80 1.81 1.81 1.80 1.63 1.55 1.43 1.37 1.27 1.23 1.30 1.42 1.55 1.63 1.50 1.36 1.33 1.41 1.40 1.36 1.34 1.32 1.32 1.32 1.28 1.22
1.65 1.62 1.63 1.57 1.62 1.67 1.77 1.92 2.10 2.17 2.13 2.13 2.00 1.84 1.78 1.70 1.59 1.59 1.61 1.71 1.73 1.71 1.68 1.63 1.50 1.38 1.30 1.29 1.31 1.36 1.46 1.52 1.49 1.43 1.40 1.43 1.45 1.45 1.37 1.29 1.25 1.23 1.23 1.17